Project,Study,Ord_Occ,Event_Num,Cast_ID,Date_Time_UTC,Date_Time_PST,Lat_Dec,Lon_Dec,Sta_ID,Line,Sta,Depth,Pressure,PrQ,Temp1,Temp1Q,Temp2,Temp2Q,TempAve,Salt1,Salt1Q,Salt1_Corr,Salt2,Salt2Q,Salt2_Corr,SaltAve_Corr,Ox1,Ox1Q,Ox1_CruiseCorr,Ox1_StaCorr,Ox2,Ox2Q,Ox2_CruiseCorr,Ox2_StaCorr,OxAve_StaCorr,Ox1uM,Ox1uM_CruiseCorr,Ox1uM_StaCorr,Ox2uM,Ox2uM_CruiseCorr,Ox2uM_StaCorr,OxAveuM_StaCorr,FluorV,FluorQ,EstChl_CruiseCorr,EstChl_StaCorr,ISUSV,ISUSQ,EstNO3_CruiseCorr,EstNO3_StaCorr,SigThetaTS1,SigThetaTS1Q,SigThetaTS2,SigThetaTS2Q,BAT,XMiss,TransQ,pH,pHQ,SPAR,SPARQ,PAR,PARQ,PoT1,PoT2,DynHt,SVA,OxSat1,OxSat2,BTL_Depth,BTL_Temp,SaltB,OxB,OxBuM,Chl-a,Phaeo,NO3,NO2,NH4,PO4,SIL
CalCOFI,2101RL,011,,2101_011d,17-Jan-2021 18:31:55,17-Jan-2021 10:31:55,31.84332,-119.56024,093.3 060.0,093.3,060.0,2.000,2.014,,15.6706,,15.6689,,15.6698,33.2592,,33.2650,33.2522,,33.2542,33.2596,5.4945,,5.7504,5.7424,5.4156,,5.7499,5.6847,5.7136,239.520,250.9897,250.6056,236.081,266.8024,248.0877,249.3467,0.0332,,0.0238,0.0589, ,, , ,24.4828,,24.4779,,0.7154,83.6216,,,,1.9826E+03,,5.0080E+00,,15.6703,15.6685,-0.0083,344.085,96.773,95.375,,,,,,,,,,,,
CalCOFI,2101RL,011,,2101_011d,17-Jan-2021 18:32:27,17-Jan-2021 10:32:27,31.84327,-119.56029,093.3 060.0,093.3,060.0,3.000,3.021,,15.6752,,15.6784,,15.6768,33.2591,,33.2649,33.2523,,33.2543,33.2596,5.4884,,5.7441,5.7361,5.4180,,5.7525,5.6872,5.7117,239.254,250.7113,250.3295,236.185,266.5066,248.1968,249.2632,0.0338,,0.0288,0.0621, ,, , ,24.4818,,24.4758,,0.7143,83.6451,,,,1.9726E+03,,4.2807E+00,,15.6748,15.6780,0.0126,344.217,96.674,95.435,3,,33.2487,5.697,248.53,0.120,0.028,,,,,
CalCOFI,2101RL,011,,2101_011d,17-Jan-2021 18:32:39,17-Jan-2021 10:32:39,31.84325,-119.56031,093.3 060.0,093.3,060.0,4.000,4.028,,15.6944,,15.6972,,15.6958,33.2594,,33.2652,33.2523,,33.2543,33.2598,5.4702,,5.7250,5.7172,5.4434,,5.7794,5.7138,5.7155,238.463,249.8833,249.5083,237.295,265.6270,249.3609,249.4346,0.0334,,0.0255,0.0600, ,, , ,24.4778,,24.4717,,0.7130,83.6738,,,,1.9718E+03,,3.9704E+00,,15.6938,15.6966,0.0188,344.631,96.390,95.919,,,,,,,,,,,,
CalCOFI,2101RL,011,,2101_011d,17-Jan-2021 18:32:39,17-Jan-2021 10:32:39,31.84324,-119.56032,093.3 060.0,093.3,060.0,5.000,5.035,,15.6728,,15.6726,,15.6727,33.2592,,33.2650,33.2525,,33.2545,33.2598,5.4919,,5.7477,5.7397,5.4476,,5.7839,5.7182,5.7290,239.408,250.8725,250.4893,237.479,266.6779,249.5538,250.0216,0.0328,,0.0206,0.0568, ,, , ,24.4825,,24.4774,,0.7144,83.6438,,,,1.9728E+03,,3.5818E+00,,15.6721,15.6719,0.0220,344.214,96.732,95.947,,,,,,,,,,,,
CalCOFI,2101RL,011,,2101_011d,17-Jan-2021 18:32:40,17-Jan-2021 10:32:40,31.84324,-119.56032,093.3 060.0,093.3,060.0,6.000,6.042,,15.6534,,15.6539,,15.6537,33.2591,,33.2649,33.2522,,33.2542,33.2596,5.4914,,5.7472,5.7392,5.4579,,5.7948,5.7290,5.7341,239.383,250.8463,250.4634,237.926,266.6501,250.0226,250.2430,0.0333,,0.0247,0.0594, ,, , ,24.4867,,24.4813,,0.7145,83.6416,,,,1.9737E+03,,3.3953E+00,,15.6525,15.6530,0.0255,343.839,96.685,96.093,,,,,,,,,,,,
CalCOFI,2101RL,011,,2101_011d,17-Jan-2021 18:32:42,17-Jan-2021 10:32:42,31.84324,-119.56032,093.3 060.0,093.3,060.0,7.000,7.049,,15.6447,,15.6446,,15.6447,33.2589,,33.2647,33.2519,,33.2539,33.2593,5.4857,,5.7412,5.7333,5.4455,,5.7817,5.7160,5.7247,239.136,250.5878,250.2070,237.383,266.3754,249.4532,249.8301,0.0334,,0.0255,0.0600, ,, , ,24.4886,,24.4832,,0.7146,83.6387,,,,1.9728E+03,,3.0490E+00,,15.6436,15.6435,0.0290,343.692,96.569,95.856,,,,,,,,,,,,
CalCOFI,2101RL,011,,2101_011d,17-Jan-2021 18:32:44,17-Jan-2021 10:32:44,31.84324,-119.56032,093.3 060.0,093.3,060.0,8.000,8.056,,15.6398,,15.6402,,15.6400,33.2588,,33.2646,33.2518,,33.2538,33.2592,5.4895,,5.7452,5.7373,5.4400,,5.7758,5.7103,5.7238,239.301,250.7605,250.3782,237.144,266.5589,249.2025,249.7904,0.0334,,0.0255,0.0600, ,, , ,24.4896,,24.4842,,0.7155,83.6204,,,,1.9696E+03,,2.9577E+00,,15.6385,15.6389,0.0324,343.628,96.626,95.751,,,,,,,,,,,,
CalCOFI,2101RL,011,,2101_011d,17-Jan-2021 18:32:45,17-Jan-2021 10:32:45,31.84322,-119.56032,093.3 060.0,093.3,060.0,9.000,9.063,,15.6362,,15.6367,,15.6365,33.2588,,33.2646,33.2520,,33.2540,33.2593,5.4859,,5.7414,5.7335,5.4439,,5.7800,5.7143,5.7239,239.142,250.5940,250.2132,237.316,266.3821,249.3829,249.7981,0.0339,,0.0296,0.0626, ,, , ,24.4905,,24.4851,,0.7153,83.6239,,,,1.9494E+03,,2.8643E+00,,15.6349,15.6354,0.0359,343.575,96.555,95.814,,,,,,,,,,,,
CalCOFI,2101RL,011,,2101_011d,17-Jan-2021 18:32:46,17-Jan-2021 10:32:46,31.84322,-119.56032,093.3 060.0,093.3,060.0,10.000,10.070,,15.6320,,15.6320,,15.6320,33.2586,,33.2644,33.2518,,33.2538,33.2591,5.4868,,5.7424,5.7345,5.4522,,5.7888,5.7230,5.7288,239.184,250.6380,250.2568,237.674,266.4288,249.7584,250.0076,0.0337,,0.0279,0.0615, ,, , ,24.4913,,24.4860,,0.7162,83.6070,,,,1.9505E+03,,2.5676E+00,,15.6305,15.6305,0.0394,343.528,96.564,95.950,,,,,,,,,,,,
CalCOFI,2101RL,011,,2101_011d,17-Jan-2021 18:32:48,17-Jan-2021 10:32:48,31.84320,-119.56032,093.3 060.0,093.3,060.0,11.000,11.077,,15.6276,,15.6282,,15.6279,33.2586,,33.2644,33.2516,,33.2536,33.2590,5.4847,,5.7402,5.7323,5.4638,,5.8011,5.7352,5.7338,239.091,250.5407,250.1602,238.181,266.3253,250.2901,250.2252,0.0341,,0.0312,0.0637, ,, , ,24.4922,,24.4868,,0.7163,83.6035,,,,1.9473E+03,,2.5784E+00,,15.6259,15.6265,0.0428,343.469,96.518,96.147,11,,33.2480,5.699,248.64,0.121,0.049,,,,,
CalCOFI,2101RL,011,,2101_011d,17-Jan-2021 18:32:51,17-Jan-2021 10:32:51,31.84319,-119.56032,093.3 060.0,093.3,060.0,12.000,12.084,,15.6215,,15.6220,,15.6218,33.2588,,33.2646,33.2520,,33.2540,33.2593,5.4845,,5.7400,5.7321,5.4615,,5.7987,5.7328,5.7325,239.082,250.5312,250.1509,238.082,266.3153,250.1862,250.1686,0.0343,,0.0329,0.0647, ,, , ,24.4938,,24.4885,,0.7165,83.6004,,,,1.9545E+03,,2.4268E+00,,15.6197,15.6201,0.0463,343.352,96.503,96.096,,,,,,,,,,,,
CalCOFI,2101RL,011,,2101_011d,17-Jan-2021 18:32:56,17-Jan-2021 10:32:56,31.84317,-119.56031,093.3 060.0,093.3,060.0,13.000,13.091,,15.6203,,15.6210,,15.6207,33.2592,,33.2650,33.2522,,33.2542,33.2596,5.5023,,5.7586,5.7505,5.4632,,5.8005,5.7346,5.7426,239.855,251.3404,250.9533,238.156,267.1749,250.2638,250.6086,0.0347,,0.0361,0.0668, ,, , ,24.4944,,24.4888,,0.7168,83.5933,,,,1.9441E+03,,2.3515E+00,,15.6183,15.6190,0.0511,343.323,96.813,96.124,,,,,,,,,,,,
CalCOFI,2101RL,011,,2101_011d,17-Jan-2021 18:33:04,17-Jan-2021 10:33:04,31.84316,-119.56030,093.3 060.0,093.3,060.0,14.000,14.098,,15.5563,,15.5542,,15.5553,33.2512,,33.2570,33.2446,,33.2466,33.2518,5.4842,,5.7397,5.7318,5.4658,,5.8032,5.7373,5.7346,239.066,250.5145,250.1343,238.264,266.2975,250.3771,250.2557,0.0348,,0.0370,0.0674, ,, , ,24.5025,,24.4979,,0.7191,83.5451,,,,1.9665E+03,,2.3444E+00,,15.5541,15.5521,0.0574,342.580,96.368,96.037,,,,,,,,,,,,
CalCOFI,2101RL,011,,2101_011d,17-Jan-2021 18:33:06,17-Jan-2021 10:33:06,31.84315,-119.56030,093.3 060.0,093.3,060.0,15.000,15.106,,15.2202,,15.2159,,15.2181,33.2147,,33.2205,33.2076,,33.2096,33.2151,5.5569,,5.8158,5.8072,5.5403,,5.8824,5.8154,5.8113,242.223,253.8192,253.4115,241.502,269.8082,253.7729,253.5922,0.0376,,0.0599,0.0822, ,, , ,24.5483,,24.5438,,0.7310,83.2983,,,,1.9545E+03,,2.2073E+00,,15.2179,15.2137,0.0610,338.239,96.974,96.672,,,,,,,,,,,,
CalCOFI,2101RL,011,,2101_011d,17-Jan-2021 18:33:12,17-Jan-2021 10:33:12,31.84310,-119.56025,093.3 060.0,093.3,060.0,16.000,16.113,,14.8681,,14.8404,,14.8543,33.1777,,33.1835,33.1702,,33.1722,33.1779,5.5971,,5.8578,5.8489,5.5761,,5.9204,5.8529,5.8509,243.966,255.6438,255.2209,243.049,271.7464,255.3952,255.3081,0.0381,,0.0640,0.0849, ,, , ,24.5964,,24.5966,,0.7469,82.9669,,,,1.9734E+03,,2.3448E+00,,14.8658,14.8381,0.0648,333.678,96.973,96.551,,,,,,,,,,,,
CalCOFI,2101RL,011,,2101_011d,17-Jan-2021 18:33:13,17-Jan-2021 10:33:13,31.84312,-119.56024,093.3 060.0,093.3,060.0,17.000,17.120,,14.7218,,14.7221,,14.7220,33.1854,,33.1912,33.1790,,33.1810,33.1861,5.6521,,5.9154,5.9059,5.6096,,5.9560,5.8880,5.8970,246.353,258.1425,257.6988,244.502,274.4008,256.9190,257.3089,0.0397,,0.0771,0.0933, ,, , ,24.6336,,24.6287,,0.7562,82.7753,,,,1.9345E+03,,2.1118E+00,,14.7193,14.7196,0.0681,330.159,97.643,96.906,,,,,,,,,,,,
CalCOFI,2101RL,011,,2101_011d,17-Jan-2021 18:33:14,17-Jan-2021 10:33:14,31.84312,-119.56024,093.3 060.0,093.3,060.0,18.000,18.127,,14.6975,,14.6957,,14.6966,33.1959,,33.2017,33.1892,,33.1912,33.1965,5.6604,,5.9241,5.9145,5.6127,,5.9592,5.8912,5.9029,246.711,258.5173,258.0705,244.636,274.7989,257.0596,257.5651,0.0414,,0.0910,0.1023, ,, , ,24.6470,,24.6422,,0.7584,82.7292,,,,1.9594E+03,,1.9815E+00,,14.6948,14.6931,0.0714,328.918,97.745,96.915,,,,,,,,,,,,
CalCOFI,2101RL,011,,2101_011d,17-Jan-2021 18:33:16,17-Jan-2021 10:33:16,31.84313,-119.56023,093.3 060.0,093.3,060.0,19.000,19.134,,14.6879,,14.6829,,14.6854,33.2055,,33.2113,33.1977,,33.1997,33.2055,5.6480,,5.9111,5.9017,5.6091,,5.9554,5.8875,5.8946,246.168,257.9489,257.5068,244.476,274.1951,256.8918,257.1993,0.0443,,0.1148,0.1177, ,, , ,24.6565,,24.6515,,0.7573,82.7516,,,,1.9726E+03,,2.0755E+00,,14.6851,14.6801,0.0752,328.040,97.518,96.833,,,,,,,,,,,,
CalCOFI,2101RL,011,,2101_011d,17-Jan-2021 18:33:20,17-Jan-2021 10:33:20,31.84316,-119.56020,093.3 060.0,093.3,060.0,20.000,20.141,,14.6736,,14.6827,,14.6782,33.2273,,33.2331,33.2188,,33.2208,33.2270,5.6368,,5.8994,5.8901,5.6084,,5.9547,5.8867,5.8884,245.677,257.4349,256.9971,244.440,273.6491,256.8540,256.9256,0.0462,,0.1304,0.1278, ,, , ,24.6764,,24.6678,,0.7633,82.6286,,,,1.9447E+03,,2.0091E+00,,14.6706,14.6797,0.0793,326.175,97.310,96.832,,,,,,,,,,,,
CalCOFI,2101RL,011,,2101_011d,17-Jan-2021 18:33:21,17-Jan-2021 10:33:21,31.84316,-119.56019,093.3 060.0,093.3,060.0,21.000,21.148,,14.7482,,14.7543,,14.7513,33.2679,,33.2737,33.2624,,33.2644,33.2691,5.6152,,5.8768,5.8677,5.5997,,5.9454,5.8776,5.8727,244.734,256.4478,256.0182,244.058,272.6004,256.4534,256.2358,0.0488,,0.1517,0.1416, ,, , ,24.6917,,24.6861,,0.7651,82.5906,,,,1.9339E+03,,1.8501E+00,,14.7451,14.7512,0.0825,324.747,97.107,96.847,21,,33.2424,5.860,255.64,0.228,0.088,,,,,
CalCOFI,2101RL,011,,2101_011d,17-Jan-2021 18:33:23,17-Jan-2021 10:33:23,31.84316,-119.56018,093.3 060.0,093.3,060.0,22.000,22.155,,14.7511,,14.7535,,14.7523,33.2755,,33.2813,33.2687,,33.2707,33.2760,5.6172,,5.8789,5.8697,5.5880,,5.9330,5.8653,5.8675,244.816,256.5336,256.1033,243.549,272.6916,255.9196,256.0115,0.0515,,0.1738,0.1559, ,, , ,24.6970,,24.6912,,0.7668,82.5562,,,,1.9633E+03,,1.9800E+00,,14.7479,14.7503,0.0858,324.278,97.151,96.648,,,,,,,,,,,,
CalCOFI,2101RL,011,,2101_011d,17-Jan-2021 18:33:26,17-Jan-2021 10:33:26,31.84318,-119.56018,093.3 060.0,093.3,060.0,23.000,23.162,,14.7069,,14.7075,,14.7072,33.2686,,33.2744,33.2623,,33.2643,33.2694,5.6511,,5.9143,5.9049,5.6050,,5.9511,5.8832,5.8941,246.292,258.0787,257.6355,244.284,274.3330,256.6904,257.1630,0.0533,,0.1885,0.1654, ,, , ,24.7012,,24.6962,,0.7701,82.4877,,,,1.9679E+03,,2.1932E+00,,14.7035,14.7041,0.0891,323.905,97.646,96.847,,,,,,,,,,,,
CalCOFI,2101RL,011,,2101_011d,17-Jan-2021 18:33:27,17-Jan-2021 10:33:27,31.84319,-119.56017,093.3 060.0,093.3,060.0,24.000,24.170,,14.6636,,14.6640,,14.6638,33.2635,,33.2693,33.2567,,33.2587,33.2640,5.6504,,5.9136,5.9042,5.6146,,5.9613,5.8932,5.8987,246.264,258.0494,257.6064,244.704,274.3018,257.1309,257.3687,0.0562,,0.2123,0.1808, ,, , ,24.7065,,24.7012,,0.7764,82.3571,,,,1.9274E+03,,1.9403E+00,,14.6601,14.6605,0.0923,323.427,97.548,96.926,,,,,,,,,,,,
CalCOFI,2101RL,011,,2101_011d,17-Jan-2021 18:33:28,17-Jan-2021 10:33:28,31.84320,-119.56016,093.3 060.0,093.3,060.0,25.000,25.177,,14.6668,,14.6675,,14.6672,33.2686,,33.2744,33.2619,,33.2639,33.2692,5.6498,,5.9130,5.9035,5.6123,,5.9588,5.8908,5.8972,246.236,258.0200,257.5774,244.602,274.2707,257.0239,257.3007,0.0573,,0.2213,0.1866, ,, , ,24.7098,,24.7045,,0.7836,82.2103,,,,1.9818E+03,,1.7560E+00,,14.6632,14.6638,0.0956,323.143,97.546,96.896,,,,,,,,,,,,
CalCOFI,2101RL,011,,2101_011d,17-Jan-2021 18:33:30,17-Jan-2021 10:33:30,31.84320,-119.56015,093.3 060.0,093.3,060.0,26.000,26.184,,14.6708,,14.6720,,14.6714,33.2709,,33.2767,33.2636,,33.2656,33.2712,5.6541,,5.9175,5.9080,5.6219,,5.9690,5.9009,5.9045,246.423,258.2158,257.7715,245.022,274.4786,257.4644,257.6180,0.0606,,0.2484,0.2041, ,, , ,24.7107,,24.7049,,0.7839,82.2032,,,,1.9781E+03,,1.9985E+00,,14.6670,14.6682,0.0989,323.082,97.629,97.072,,,,,,,,,,,,
CalCOFI,2101RL,011,,2101_011d,17-Jan-2021 18:33:35,17-Jan-2021 10:33:35,31.84322,-119.56012,093.3 060.0,093.3,060.0,27.000,27.191,,14.6728,,14.6736,,14.6732,33.2757,,33.2815,33.2694,,33.2714,33.2765,5.6367,,5.8993,5.8900,5.6083,,5.9546,5.8866,5.8883,245.664,257.4213,256.9836,244.426,273.6346,256.8393,256.9115,0.0646,,0.2811,0.2253, ,, , ,24.7141,,24.7091,,0.7842,82.1984,,,,1.9691E+03,,2.2340E+00,,14.6688,14.6696,0.1024,322.792,97.336,96.843,,,,,,,,,,,,
CalCOFI,2101RL,011,,2101_011d,17-Jan-2021 18:33:35,17-Jan-2021 10:33:35,31.84322,-119.56012,093.3 060.0,093.3,060.0,28.000,28.198,,14.6744,,14.6748,,14.6746,33.2816,,33.2874,33.2747,,33.2767,33.2821,5.6446,,5.9075,5.8981,5.5992,,5.9449,5.8771,5.8876,246.008,257.7814,257.3407,244.029,274.0172,256.4230,256.8819,0.0669,,0.3000,0.2375, ,, , ,24.7183,,24.7129,,0.7819,82.2438,,,,1.9768E+03,,2.0614E+00,,14.6703,14.6707,0.1056,322.421,97.479,96.691,,,,,,,,,,,,
CalCOFI,2101RL,011,,2101_011d,17-Jan-2021 18:33:37,17-Jan-2021 10:33:37,31.84322,-119.56012,093.3 060.0,093.3,060.0,29.000,29.205,,14.6746,,14.6750,,14.6748,33.2824,,33.2882,33.2757,,33.2777,33.2830,5.6305,,5.8928,5.8835,5.5991,,5.9448,5.8770,5.8803,245.393,257.1376,256.7023,244.023,273.3333,256.4167,256.5595,0.0681,,0.3098,0.2438, ,, , ,24.7189,,24.7137,,0.7817,82.2486,,,,1.9786E+03,,2.0207E+00,,14.6703,14.6708,0.1088,322.391,97.237,96.690,,,,,,,,,,,,
CalCOFI,2101RL,011,,2101_011d,17-Jan-2021 18:33:38,17-Jan-2021 10:33:38,31.84320,-119.56010,093.3 060.0,093.3,060.0,30.000,30.212,,14.6767,,14.6767,,14.6767,33.2866,,33.2924,33.2793,,33.2813,33.2869,5.6221,,5.8840,5.8748,5.5892,,5.9343,5.8666,5.8707,245.027,256.7545,256.3223,243.592,272.9263,255.9647,256.1435,0.0720,,0.3418,0.2645, ,, , ,24.7218,,24.7161,,0.7811,82.2602,,,,1.9788E+03,,2.3004E+00,,14.6723,14.6723,0.1121,322.153,97.099,96.525,,,,,,,,,,,,
CalCOFI,2101RL,011,,2101_011d,17-Jan-2021 18:33:41,17-Jan-2021 10:33:41,31.84321,-119.56010,093.3 060.0,093.3,060.0,31.000,31.219,,14.6813,,14.6816,,14.6815,33.2932,,33.2990,33.2859,,33.2879,33.2935,5.6082,,5.8694,5.8604,5.5587,,5.9019,5.8346,5.8475,244.417,256.1159,255.6891,242.263,272.2479,254.5709,255.1300,0.0774,,0.3860,0.2931, ,, , ,24.7259,,24.7202,,0.7809,82.2640,,,,1.9785E+03,,2.3969E+00,,14.6767,14.6770,0.1153,321.790,96.870,96.012,,,,,,,,,,,,
CalCOFI,2101RL,011,,2101_011d,17-Jan-2021 18:33:42,17-Jan-2021 10:33:42,31.84322,-119.56010,093.3 060.0,093.3,060.0,32.000,32.227,,14.7056,,14.7060,,14.7058,33.3093,,33.3151,33.3027,,33.3047,33.3099,5.6128,,5.8743,5.8652,5.5560,,5.8990,5.8318,5.8485,244.617,256.3253,255.8967,242.144,272.4703,254.4462,255.1715,0.1056,,0.6171,0.4425, ,, , ,24.7331,,24.7279,,0.7876,82.1267,,,,1.9785E+03,,2.2639E+00,,14.7009,14.7013,0.1186,321.136,97.007,96.023,,,,,,,,,,,,
CalCOFI,2101RL,011,,2101_011d,17-Jan-2021 18:33:45,17-Jan-2021 10:33:45,31.84320,-119.56008,093.3 060.0,093.3,060.0,33.000,33.234,,14.7814,,14.7743,,14.7779,33.3287,,33.3345,33.3263,,33.3283,33.3314,5.5984,,5.8592,5.8502,5.5511,,5.8938,5.8267,5.8385,243.991,255.6700,255.2469,241.927,271.7742,254.2186,254.7328,0.1087,,0.6425,0.4590, ,, , ,24.7319,,24.7316,,0.7813,82.2567,,,,1.9798E+03,,2.3113E+00,,14.7765,14.7694,0.1218,321.283,96.917,96.082,,,,,,,,,,,,
CalCOFI,2101RL,011,,2101_011d,17-Jan-2021 18:33:48,17-Jan-2021 10:33:48,31.84322,-119.56010,093.3 060.0,093.3,060.0,34.000,34.241,,14.8599,,14.8616,,14.8608,33.3722,,33.3780,33.3654,,33.3674,33.3727,5.5373,,5.7952,5.7868,5.5183,,5.8590,5.7923,5.7896,241.324,252.8782,252.4783,240.496,268.8085,252.7178,252.5981,0.1104,,0.6564,0.4680, ,, , ,24.7486,,24.7429,,0.7799,82.2849,,,,1.9797E+03,,2.3451E+00,,14.8548,14.8565,0.1250,319.734,96.036,95.705,,,,,,,,,,,,
CalCOFI,2101RL,011,,2101_011d,17-Jan-2021 18:33:49,17-Jan-2021 10:33:49,31.84322,-119.56010,093.3 060.0,093.3,060.0,35.000,35.248,,14.8867,,14.8866,,14.8867,33.3886,,33.3944,33.3823,,33.3843,33.3894,5.5360,,5.7939,5.7855,5.4912,,5.8302,5.7639,5.7747,241.264,252.8154,252.4160,239.313,268.7418,251.4772,251.9466,0.1392,,0.8924,0.6206, ,, , ,24.7554,,24.7506,,0.7863,82.1552,,,,1.9781E+03,,2.1625E+00,,14.8815,14.8814,0.1282,319.111,96.074,95.292,,,,,,,,,,,,
CalCOFI,2101RL,011,,2101_011d,17-Jan-2021 18:33:50,17-Jan-2021 10:33:50,31.84322,-119.56009,093.3 060.0,093.3,060.0,36.000,36.255,,14.8775,,14.8779,,14.8777,33.3919,,33.3977,33.3852,,33.3872,33.3925,5.5337,,5.7915,5.7831,5.4851,,5.8237,5.7575,5.7703,241.164,252.7107,252.3122,239.045,268.6306,251.1962,251.7542,0.1374,,0.8777,0.6110, ,, , ,24.7600,,24.7547,,0.7843,82.1948,,,,1.9775E+03,,2.0844E+00,,14.8721,14.8726,0.1315,318.704,96.018,95.172,,,,,,,,,,,,
CalCOFI,2101RL,011,,2101_011d,17-Jan-2021 18:33:51,17-Jan-2021 10:33:51,31.84322,-119.56008,093.3 060.0,093.3,060.0,37.000,37.262,,14.8711,,14.8718,,14.8715,33.3909,,33.3967,33.3843,,33.3863,33.3915,5.5394,,5.7974,5.7890,5.4972,,5.8366,5.7702,5.7796,241.410,252.9682,252.5676,239.574,268.9041,251.7509,252.1593,0.1382,,0.8842,0.6153, ,, , ,24.7607,,24.7555,,0.7852,82.1762,,,,1.9778E+03,,1.8188E+00,,14.8655,14.8663,0.1347,318.670,96.104,95.370,,,,,,,,,,,,
CalCOFI,2101RL,011,,2101_011d,17-Jan-2021 18:33:54,17-Jan-2021 10:33:54,31.84322,-119.56007,093.3 060.0,093.3,060.0,38.000,38.270,,14.8624,,14.8624,,14.8624,33.3844,,33.3902,33.3778,,33.3798,33.3850,5.5345,,5.7923,5.7839,5.4995,,5.8390,5.7726,5.7783,241.201,252.7494,252.3506,239.675,268.6717,251.8569,252.1038,0.1424,,0.9186,0.6375, ,, , ,24.7576,,24.7524,,0.7825,82.2315,,,,1.9749E+03,,1.8100E+00,,14.8567,14.8568,0.1392,318.998,96.000,95.388,,,,,,,,,,,,
CalCOFI,2101RL,011,,2101_011d,17-Jan-2021 18:33:58,17-Jan-2021 10:33:58,31.84322,-119.56006,093.3 060.0,093.3,060.0,39.000,39.277,,14.8598,,14.8596,,14.8597,33.3863,,33.3921,33.3782,,33.3802,33.3862,5.4880,,5.7436,5.7357,5.4726,,5.8104,5.7444,5.7401,239.172,250.6254,250.2443,238.502,266.4154,250.6267,250.4355,0.1421,,0.9162,0.6360, ,, , ,24.7596,,24.7534,,0.7814,82.2539,,,,1.9101E+03,,1.6711E+00,,14.8540,14.8538,0.1436,318.836,95.189,94.916,,,,,,,,,,,,
CalCOFI,2101RL,011,,2101_011d,17-Jan-2021 18:33:59,17-Jan-2021 10:33:59,31.84322,-119.56006,093.3 060.0,093.3,060.0,40.000,40.284,,14.8342,,14.8344,,14.8343,33.3859,,33.3917,33.3793,,33.3813,33.3865,5.4907,,5.7465,5.7385,5.4594,,5.7964,5.7306,5.7346,239.291,250.7500,250.3679,237.925,266.5477,250.0216,250.1948,0.1405,,0.9031,0.6275, ,, , ,24.7648,,24.7597,,0.7761,82.3628,,,,1.9451E+03,,1.4682E+00,,14.8283,14.8284,0.1469,318.361,95.187,94.640,,,,,,,,,,,,
CalCOFI,2101RL,011,,2101_011d,17-Jan-2021 18:34:00,17-Jan-2021 10:34:00,31.84321,-119.56006,093.3 060.0,093.3,060.0,41.000,41.291,,14.8237,,14.8241,,14.8239,33.3869,,33.3927,33.3800,,33.3820,33.3874,5.4895,,5.7452,5.7373,5.4362,,5.7718,5.7063,5.7218,239.236,250.6924,250.3108,236.915,266.4866,248.9624,249.6366,0.1473,,0.9588,0.6635, ,, , ,24.7679,,24.7625,,0.7715,82.4577,,,,1.9790E+03,,1.3171E+00,,14.8176,14.8180,0.1501,318.098,95.146,94.219,,,,,,,,,,,,
CalCOFI,2101RL,011,,2101_011d,17-Jan-2021 18:34:01,17-Jan-2021 10:34:01,31.84320,-119.56006,093.3 060.0,093.3,060.0,42.000,42.298,,14.8289,,14.8294,,14.8292,33.3908,,33.3966,33.3840,,33.3860,33.3913,5.4813,,5.7366,5.7288,5.4386,,5.7743,5.7088,5.7188,238.880,250.3198,249.9412,237.020,266.0907,249.0725,249.5069,0.1469,,0.9555,0.6614, ,, , ,24.7698,,24.7644,,0.7694,82.5011,,,,1.9795E+03,,1.2705E+00,,14.8226,14.8232,0.1533,317.949,95.017,94.274,,,,,,,,,,,,
CalCOFI,2101RL,011,,2101_011d,17-Jan-2021 18:34:03,17-Jan-2021 10:34:03,31.84319,-119.56005,093.3 060.0,093.3,060.0,43.000,43.306,,14.8406,,14.8404,,14.8405,33.3985,,33.4043,33.3904,,33.3924,33.3984,5.4534,,5.7074,5.6998,5.4120,,5.7461,5.6809,5.6904,237.662,249.0448,248.6768,235.857,264.7363,247.8528,248.2648,0.1487,,0.9703,0.6709, ,, , ,24.7733,,24.7670,,0.7657,82.5783,,,,1.9796E+03,,1.3010E+00,,14.8342,14.8341,0.1565,317.650,94.560,93.836,,,,,,,,,,,,
CalCOFI,2101RL,011,,2101_011d,17-Jan-2021 18:34:06,17-Jan-2021 10:34:06,31.84317,-119.56004,093.3 060.0,093.3,060.0,44.000,44.313,,14.8086,,14.8120,,14.8103,33.4004,,33.4062,33.3929,,33.3949,33.4006,5.4506,,5.7045,5.6969,5.3948,,5.7278,5.6629,5.6799,237.537,248.9139,248.5471,235.105,264.5973,247.0642,247.8057,0.1253,,0.7785,0.5469, ,, , ,24.7816,,24.7751,,0.7616,82.6635,,,,1.9254E+03,,1.2114E+00,,14.8021,14.8055,0.1597,316.881,94.451,93.486,,,,,,,,,,,,
CalCOFI,2101RL,011,,2101_011d,17-Jan-2021 18:34:08,17-Jan-2021 10:34:08,31.84314,-119.56002,093.3 060.0,093.3,060.0,45.000,45.320,,14.7783,,14.7703,,14.7743,33.3923,,33.3981,33.3849,,33.3869,33.3925,5.4285,,5.6814,5.6740,5.3984,,5.7316,5.6667,5.6704,236.575,247.9069,247.5484,235.265,263.5275,247.2320,247.3902,0.1239,,0.7670,0.5395, ,, , ,24.7819,,24.7780,,0.7591,82.7142,,,,1.9360E+03,,1.1207E+00,,14.7717,14.7637,0.1628,316.880,94.007,93.467,,,,,,,,,,,,
CalCOFI,2101RL,011,,2101_011d,17-Jan-2021 18:34:11,17-Jan-2021 10:34:11,31.84314,-119.56000,093.3 060.0,093.3,060.0,46.000,46.327,,14.7463,,14.7462,,14.7463,33.3931,,33.3989,33.3871,,33.3891,33.3940,5.4111,,5.6632,5.6559,5.3534,,5.6838,5.6195,5.6377,235.815,247.1113,246.7595,233.302,262.6824,245.1733,245.9664,0.1371,,0.8752,0.6095, ,, , ,24.7895,,24.7848,,0.7556,82.7869,,,,1.9851E+03,,1.0058E+00,,14.7395,14.7394,0.1660,316.191,93.646,92.644,,,,,,,,,,,,
CalCOFI,2101RL,011,,2101_011d,17-Jan-2021 18:34:13,17-Jan-2021 10:34:13,31.84314,-119.56000,093.3 060.0,093.3,060.0,47.000,47.335,,14.6602,,14.6588,,14.6595,33.3786,,33.3844,33.3722,,33.3742,33.3793,5.4296,,5.6825,5.6751,5.3779,,5.7099,5.6452,5.6602,236.619,247.9530,247.5941,234.368,263.5764,246.2913,246.9427,0.1141,,0.6867,0.4876, ,, , ,24.7967,,24.7921,,0.7528,82.8447,,,,1.9786E+03,,9.4608E-01,,14.6533,14.6518,0.1692,315.524,93.796,92.896,,,,,,,,,,,,
CalCOFI,2101RL,011,,2101_011d,17-Jan-2021 18:34:14,17-Jan-2021 10:34:14,31.84314,-119.56002,093.3 060.0,093.3,060.0,48.000,48.342,,14.6438,,14.6439,,14.6439,33.3844,,33.3902,33.3774,,33.3794,33.3848,5.4043,,5.6560,5.6489,5.3695,,5.7009,5.6364,5.6427,235.512,246.7942,246.4449,234.000,262.3454,245.9053,246.1751,0.1106,,0.6581,0.4690, ,, , ,24.8047,,24.7993,,0.7515,82.8714,,,,1.9758E+03,,9.0073E-01,,14.6367,14.6368,0.1724,314.789,93.330,92.727,,,,,,,,,,,,
CalCOFI,2101RL,011,,2101_011d,17-Jan-2021 18:34:15,17-Jan-2021 10:34:15,31.84314,-119.56002,093.3 060.0,093.3,060.0,49.000,49.349,,14.6703,,14.6711,,14.6707,33.3964,,33.4022,33.3889,,33.3909,33.3966,5.3996,,5.6511,5.6440,5.3744,,5.7062,5.6415,5.6428,235.308,246.5806,246.2332,234.210,262.1186,246.1256,246.1794,0.1093,,0.6474,0.4621, ,, , ,24.8084,,24.8024,,0.7512,82.8769,,,,1.9767E+03,,8.4131E-01,,14.6631,14.6638,0.1756,314.473,93.306,92.867,,,,,,,,,,,,
CalCOFI,2101RL,011,,2101_011d,17-Jan-2021 18:34:16,17-Jan-2021 10:34:16,31.84313,-119.56002,093.3 060.0,093.3,060.0,50.000,50.356,,14.7326,,14.7369,,14.7348,33.4208,,33.4266,33.4156,,33.4176,33.4221,5.4001,,5.6516,5.6445,5.3561,,5.6867,5.6223,5.6334,235.328,246.6016,246.2539,233.411,262.1408,245.2876,245.7708,0.1082,,0.6384,0.4563, ,, , ,24.8139,,24.8089,,0.7483,82.9387,,,,1.9797E+03,,7.9021E-01,,14.7252,14.7295,0.1787,313.984,93.445,92.689,,,,,,,,,,,,
CalCOFI,2101RL,011,,2101_011d,17-Jan-2021 18:34:20,17-Jan-2021 10:34:20,31.84309,-119.56002,093.3 060.0,093.3,060.0,51.000,51.364,,14.7334,,14.7294,,14.7314,33.4241,,33.4299,33.4131,,33.4151,33.4225,5.3559,,5.6054,5.5987,5.3343,,5.6636,5.5995,5.5991,233.404,244.5875,244.2566,232.461,260.0013,244.2914,244.2740,0.0972,,0.5483,0.3980, ,, , ,24.8163,,24.8087,,0.7466,82.9742,,,,1.9811E+03,,7.6077E-01,,14.7259,14.7218,0.1819,313.787,92.685,92.296,51,,33.3853,5.579,243.36,0.380,0.231,,,,,